Previsão horária em Aberystwyth

Hoje, 17 Abril, Sábado

Tempo Temperatura Precipitação Vento Pressão Humidade
00:00 +4°C° 0 mm 1 m/s 764 mmHg 88%
01:00 +3°C° 0 mm 1 m/s 764 mmHg 88%
02:00 +3°C° 0 mm 1 m/s 764 mmHg 87%
03:00 +3°C° 0 mm 1 m/s 764 mmHg 87%
04:00 +3°C° 0 mm 1 m/s 764 mmHg 86%
05:00 +3°C° 0 mm 1 m/s 764 mmHg 84%
06:00 +3°C° 0 mm 1 m/s 764 mmHg 83%
07:00 +5°C° 0 mm 1 m/s 764 mmHg 75%
08:00 +8°C° 0 mm 1 m/s 763 mmHg 67%
09:00 +10°C° 0 mm 1 m/s 763 mmHg 59%
10:00 +9°C° 0 mm 2 m/s 763 mmHg 57%
11:00 +10°C° 0 mm 2 m/s 763 mmHg 54%
12:00 +12°C° 0 mm 2 m/s 763 mmHg 52%
13:00 +12°C° 0 mm 2 m/s 762 mmHg 52%
14:00 +12°C° 0 mm 2 m/s 762 mmHg 53%
15:00 +13°C° 0 mm 2 m/s 761 mmHg 53%
16:00 +10°C° 0 mm 2 m/s 761 mmHg 60%
17:00 +9°C° 0 mm 2 m/s 761 mmHg 67%
18:00 +8°C° 0 mm 3 m/s 761 mmHg 73%
19:00 +7°C° 0 mm 2 m/s 761 mmHg 77%
20:00 +7°C° 0 mm 1 m/s 761 mmHg 82%
21:00 +6°C° 0 mm 1 m/s 761 mmHg 86%
22:00 +5°C° 0 mm 1 m/s 761 mmHg 87%
23:00 +5°C° 0 mm 1 m/s 761 mmHg 88%

Amanhã, 18 Abril, Domingo

Tempo Temperatura Precipitação Vento Pressão Humidade
00:00 +3°C° 0 mm 2 m/s 761 mmHg 90%
01:00 +3°C° 0 mm 2 m/s 761 mmHg 89%
02:00 +3°C° 0 mm 2 m/s 760 mmHg 89%
03:00 +3°C° 0 mm 2 m/s 760 mmHg 88%
04:00 +4°C° 0 mm 2 m/s 760 mmHg 85%
05:00 +4°C° 0 mm 2 m/s 760 mmHg 82%
06:00 +5°C° 0 mm 2 m/s 760 mmHg 80%
07:00 +6°C° 0 mm 2 m/s 760 mmHg 75%
08:00 +7°C° 0 mm 2 m/s 760 mmHg 71%
09:00 +8°C° 0 mm 2 m/s 760 mmHg 66%
10:00 +9°C° 0 mm 2 m/s 760 mmHg 64%
11:00 +10°C° 0 mm 2 m/s 759 mmHg 62%
12:00 +10°C° 0 mm 2 m/s 759 mmHg 60%
13:00 +10°C° 0 mm 2 m/s 759 mmHg 62%
14:00 +10°C° 0 mm 2 m/s 759 mmHg 65%
15:00 +9°C° 0 mm 2 m/s 759 mmHg 67%
16:00 +9°C° 0 mm 2 m/s 759 mmHg 70%
17:00 +10°C° 0 mm 1 m/s 759 mmHg 72%
18:00 +10°C° 0 mm 1 m/s 759 mmHg 74%
19:00 +9°C° 0 mm 1 m/s 759 mmHg 76%
20:00 +9°C° 0 mm 1 m/s 759 mmHg 78%
21:00 +8°C° 0 mm 1 m/s 759 mmHg 80%
22:00 +8°C° 0 mm 1 m/s 758 mmHg 81%
23:00 +8°C° 0 mm 1 m/s 758 mmHg 82%

Depois de amanhã, 19 Abril, Segunda-feira

Tempo Temperatura Precipitação Vento Pressão Humidade
00:00 +8°C° 0 mm 1 m/s 758 mmHg 82%
01:00 +7°C° 0 mm 1 m/s 758 mmHg 85%
02:00 +6°C° 0 mm 1 m/s 757 mmHg 87%
03:00 +5°C° 0 mm 1 m/s 757 mmHg 90%
04:00 +5°C° 0 mm 1 m/s 757 mmHg 89%
05:00 +4°C° 0 mm 2 m/s 757 mmHg 89%
06:00 +4°C° 0 mm 2 m/s 757 mmHg 88%
07:00 +6°C° 0 mm 2 m/s 757 mmHg 79%
08:00 +8°C° 0 mm 2 m/s 757 mmHg 70%
09:00 +10°C° 0 mm 2 m/s 757 mmHg 61%
10:00 +12°C° 0 mm 2 m/s 756 mmHg 57%
11:00 +12°C° 0 mm 2 m/s 756 mmHg 54%
12:00 +13°C° 0 mm 2 m/s 756 mmHg 51%
13:00 +14°C° 0 mm 2 m/s 756 mmHg 51%
14:00 +14°C° 0 mm 2 m/s 755 mmHg 52%
15:00 +13°C° 0 mm 3 m/s 755 mmHg 53%
16:00 +13°C° 0 mm 2 m/s 755 mmHg 61%
17:00 +12°C° 0 mm 2 m/s 755 mmHg 70%
18:00 +10°C° 0 mm 1 m/s 755 mmHg 79%
19:00 +10°C° 0 mm 1 m/s 755 mmHg 79%
20:00 +10°C° 0 mm 1 m/s 755 mmHg 80%
21:00 +9°C° 0 mm 1 m/s 755 mmHg 80%
22:00 +9°C° 0 mm 1 m/s 755 mmHg 80%
23:00 +9°C° 0 mm 1 m/s 755 mmHg 80%

20 Abril, Terça-feira

Tempo Temperatura Precipitação Vento Pressão Humidade
00:00 +9°C° 0 mm 1 m/s 755 mmHg 80%
01:00 +9°C° 0 mm 1 m/s 755 mmHg 80%
02:00 +9°C° 0 mm 1 m/s 755 mmHg 79%
03:00 +9°C° 0 mm 1 m/s 755 mmHg 78%
04:00 +9°C° 0 mm 1 m/s 755 mmHg 77%
05:00 +9°C° 0 mm 1 m/s 755 mmHg 75%
06:00 +9°C° 0 mm 1 m/s 755 mmHg 74%
07:00 +10°C° 0 mm 1 m/s 755 mmHg 70%
08:00 +11°C° 0 mm 1 m/s 755 mmHg 67%
09:00 +12°C° 0 mm 2 m/s 756 mmHg 64%
10:00 +12°C° 0 mm 2 m/s 756 mmHg 63%
11:00 +12°C° 0 mm 2 m/s 756 mmHg 62%
12:00 +12°C° 0 mm 3 m/s 756 mmHg 61%
13:00 +12°C° 0 mm 3 m/s 756 mmHg 62%
14:00 +12°C° 0 mm 4 m/s 756 mmHg 63%
15:00 +12°C° 0 mm 4 m/s 756 mmHg 65%
16:00 +11°C° 0 mm 4 m/s 756 mmHg 70%
17:00 +10°C° 0 mm 4 m/s 756 mmHg 75%
18:00 +8°C° 0 mm 4 m/s 756 mmHg 80%
19:00 +7°C° 0 mm 4 m/s 757 mmHg 85%
20:00 +6°C° 0 mm 4 m/s 757 mmHg 89%
21:00 +5°C° 0 mm 4 m/s 757 mmHg 94%
22:00 +4°C° 0 mm 4 m/s 757 mmHg 94%
23:00 +4°C° 0 mm 3 m/s 757 mmHg 94%

21 Abril, Quarta-feira

Tempo Temperatura Precipitação Vento Pressão Humidade
00:00 +3°C° 0 mm 3 m/s 757 mmHg 94%
01:00 +3°C° 0 mm 3 m/s 758 mmHg 93%
02:00 +3°C° 0 mm 3 m/s 758 mmHg 93%
03:00 +3°C° 0 mm 2 m/s 758 mmHg 92%
04:00 +4°C° 0 mm 2 m/s 758 mmHg 91%
05:00 +4°C° 0 mm 2 m/s 758 mmHg 91%
06:00 +4°C° 0 mm 2 m/s 758 mmHg 90%
07:00 +6°C° 0 mm 2 m/s 759 mmHg 82%
08:00 +8°C° 0 mm 2 m/s 759 mmHg 75%
09:00 +10°C° 0 mm 2 m/s 759 mmHg 67%
10:00 +10°C° 0 mm 2 m/s 759 mmHg 63%
11:00 +12°C° 0 mm 2 m/s 759 mmHg 59%
12:00 +13°C° 0 mm 2 m/s 759 mmHg 55%
13:00 +13°C° 0 mm 2 m/s 759 mmHg 56%
14:00 +12°C° 0 mm 3 m/s 759 mmHg 58%
15:00 +12°C° 0 mm 3 m/s 759 mmHg 59%
16:00 +11°C° 0 mm 3 m/s 760 mmHg 62%
17:00 +11°C° 0 mm 3 m/s 760 mmHg 66%
18:00 +10°C° 0 mm 2 m/s 760 mmHg 70%
19:00 +9°C° 0 mm 2 m/s 760 mmHg 74%
20:00 +8°C° 0 mm 1 m/s 760 mmHg 77%
21:00 +7°C° 0 mm 1 m/s 761 mmHg 81%
22:00 +6°C° 0 mm 1 m/s 761 mmHg 82%
23:00 +6°C° 0 mm 1 m/s 761 mmHg 83%

22 Abril, Quinta-feira

Tempo Temperatura Precipitação Vento Pressão Humidade
00:00 +5°C° 0 mm 1 m/s 761 mmHg 83%
01:00 +5°C° 0 mm 1 m/s 761 mmHg 84%
02:00 +5°C° 0 mm 1 m/s 761 mmHg 84%
03:00 +4°C° 0 mm 1 m/s 761 mmHg 84%
04:00 +5°C° 0 mm 1 m/s 761 mmHg 83%
05:00 +5°C° 0 mm 1 m/s 761 mmHg 82%
06:00 +5°C° 0 mm 1 m/s 761 mmHg 81%
07:00 +7°C° 0 mm 1 m/s 761 mmHg 73%
08:00 +9°C° 0 mm 1 m/s 761 mmHg 65%
09:00 +11°C° 0 mm 1 m/s 762 mmHg 57%
10:00 +12°C° 0 mm 1 m/s 762 mmHg 55%
11:00 +13°C° 0 mm 1 m/s 762 mmHg 52%
12:00 +14°C° 0 mm 1 m/s 762 mmHg 50%
13:00 +14°C° 0 mm 1 m/s 761 mmHg 51%
14:00 +15°C° 0 mm 1 m/s 761 mmHg 52%
15:00 +15°C° 0 mm 1 m/s 761 mmHg 54%
16:00 +14°C° 0 mm 1 m/s 761 mmHg 59%
17:00 +13°C° 0 mm 1 m/s 761 mmHg 65%
18:00 +13°C° 0 mm 1 m/s 761 mmHg 71%
19:00 +11°C° 0 mm 1 m/s 761 mmHg 75%
20:00 +10°C° 0 mm 1 m/s 762 mmHg 79%
21:00 +9°C° 0 mm 1 m/s 762 mmHg 82%
22:00 +7°C° 0 mm 2 m/s 762 mmHg 84%
23:00 +7°C° 0 mm 2 m/s 762 mmHg 86%
Mostrar mais